Greenland, New Hampshire, United States (03840)
Lat: 43.04N, Lon: 70.83W
Wx Zone: NHZ014
Local Info
Past Weather Observations for Friday, October 17, 2014

NOTE: This archive is for the closest National Weather Service station to Greenland. Information may differ from the station used for current weather conditions.

Click here for Long-term Archive

Time Weather Temperature Dewpoint Humidity Pressure Winds Precip Visibility
23:58
Partly Cloudy
57°F / 14°C 52°F / 11°C 82% 29.65 in
(1004 mb)
S 5.8 mph
(S 9 kph)
- 10SM
22:58
Partly Cloudy
57°F / 14°C 52°F / 11°C 82% 29.65 in
(1004 mb)
S 2.3 mph
(S 4 kph)
- 10SM
21:58
Partly Cloudy
59°F / 15°C 52°F / 11°C 77% 29.65 in
(1004 mb)
SSE 4.6 mph
(SSE 7 kph)
- 10SM
20:58
Clear
61°F / 16°C 52°F / 11°C 72% 29.65 in
(1004 mb)
SW 5.8 mph
(SW 9 kph)
- 10SM
19:58
Clear
63°F / 17°C 52°F / 11°C 68% 29.65 in
(1004 mb)
S 9.2 mph
(S 15 kph)
- 10SM
18:58
Clear
61°F / 16°C 50°F / 10°C 68% 29.65 in
(1004 mb)
S 6.9 mph
(S 11 kph)
- 10SM
17:58
Partly Cloudy
63°F / 17°C 50°F / 10°C 64% 29.62 in
(1003 mb)
S 5.8 mph
(S 9 kph)
- 10SM
16:58
Partly Cloudy
66°F / 19°C 50°F / 10°C 56% 29.62 in
(1003 mb)
SSE 3.5 mph
(SSE 6 kph)
- 10SM
15:58
Partly Cloudy
70°F / 21°C 50°F / 10°C 50% 29.62 in
(1003 mb)
SW 8.1 mph
(SW 13 kph)
- 10SM
14:58
Partly Cloudy
72°F / 22°C 50°F / 10°C 47% 29.59 in
(1002 mb)
SSW 10.4 mph
(SSW 17 kph)
- 10SM
13:58
Partly Cloudy
72°F / 22°C 50°F / 10°C 47% 29.59 in
(1002 mb)
SW 11.5 mph
(SW 19 kph)
- 10SM
12:58
Partly Cloudy
72°F / 22°C 54°F / 12°C 53% 29.59 in
(1002 mb)
SSW 10.4 mph
(SSW 17 kph)
- 10SM
11:58
Mostly Cloudy
70°F / 21°C 54°F / 12°C 57% 29.59 in
(1002 mb)
SSW 11.5 mph
(SSW 19 kph)
- 10SM
10:58
Partly Cloudy
70°F / 21°C 55°F / 13°C 60% 29.62 in
(1003 mb)
SSW 10.4 mph
(SSW 17 kph)
- 10SM
09:58
Partly Cloudy
66°F / 19°C 57°F / 14°C 73% 29.59 in
(1002 mb)
SSW 8.1 mph
(SSW 13 kph)
- 10SM
09:26
Mostly Cloudy
64°F / 18°C 59°F / 15°C 83% 29.62 in
(1003 mb)
SW 8.1 mph
(SW 13 kph)
- 10SM
08:58
Mostly Cloudy
63°F / 17°C 59°F / 15°C 88% 29.62 in
(1003 mb)
SW 10.4 mph
(SW 17 kph)
- 7SM
07:58
Overcast
Fog And Mist
61°F / 16°C 59°F / 15°C 94% 29.62 in
(1003 mb)
SW 8.1 mph
(SW 13 kph)
- 5SM
07:28
Mostly Cloudy
Fog And Mist
61°F / 16°C 59°F / 15°C 94% 29.59 in
(1002 mb)
S 5.8 mph
(S 9 kph)
- 3SM
07:13
Mostly Cloudy
Fog And Mist
59°F / 15°C 59°F / 15°C 100% 29.59 in
(1002 mb)
S 5.8 mph
(S 9 kph)
- 2SM
06:58
Mostly Cloudy
Fog And Mist
59°F / 15°C 59°F / 15°C 100% 29.59 in
(1002 mb)
SSE 4.6 mph
(SSE 7 kph)
- 2SM
06:43
Overcast
Fog And Mist
59°F / 15°C 59°F / 15°C 100% 29.62 in
(1003 mb)
S 5.8 mph
(S 9 kph)
- 1 1/2SM
06:13
Mostly Cloudy
Fog And Mist
59°F / 15°C 57°F / 14°C 94% 29.59 in
(1002 mb)
S 5.8 mph
(S 9 kph)
- 1SM
05:58
Overcast
Fog And Mist
59°F / 15°C 59°F / 15°C 100% 29.59 in
(1002 mb)
S 5.8 mph
(S 9 kph)
0.00 in
(0.00 mm)
3/4SM
05:28
Overcast
Fog And Mist
59°F / 15°C 57°F / 14°C 94% 29.59 in
(1002 mb)
S 4.6 mph
(S 7 kph)
- 3/4SM
05:13
Overcast
Fog And Mist
59°F / 15°C 59°F / 15°C 100% 29.62 in
(1003 mb)
SE 4.6 mph
(SE 7 kph)
- 1 1/4SM
04:58
Overcast
Light Rain
59°F / 15°C 59°F / 15°C 100% 29.62 in
(1003 mb)
S 5.8 mph
(S 9 kph)
0.03 in
(0.76 mm)
1 1/4SM
04:13
Overcast
Light Rain
59°F / 15°C 59°F / 15°C 100% 29.62 in
(1003 mb)
S 2.3 mph
(S 4 kph)
- 5SM
03:58
Overcast
Light Rain
61°F / 16°C 59°F / 15°C 94% 29.59 in
(1002 mb)
SSE 2.3 mph
(SSE 4 kph)
0.00 in
(0.00 mm)
5SM
03:49
Overcast
Light Rain
61°F / 16°C 59°F / 15°C 94% 29.59 in
(1002 mb)
SSE 1.2 mph
(SSE 2 kph)
- 4SM
03:36
Overcast
Fog And Mist
61°F / 16°C 59°F / 15°C 94% 29.62 in
(1003 mb)
SW 4.6 mph
(SW 7 kph)
- 4SM
02:58
Overcast
61°F / 16°C 59°F / 15°C 94% 29.59 in
(1002 mb)
Calm - 7SM
01:58
Overcast
Fog And Mist
61°F / 16°C 59°F / 15°C 94% 29.62 in
(1003 mb)
SW 5.8 mph
(SW 9 kph)
- 5SM
00:58
Overcast
Fog And Mist
61°F / 16°C 59°F / 15°C 94% 29.65 in
(1004 mb)
S 4.6 mph
(S 7 kph)
- 5SM
00:28
Overcast
61°F / 16°C 59°F / 15°C 94% 29.68 in
(1005 mb)
S 6.9 mph
(S 11 kph)
- 10SM
00:23
Overcast
Fog And Mist
1706°F / 930°C N/A N/A N/A SSE 5.8 mph
(SSE 9 kph)
- 1 1/2SM
Time Weather Temperature Dewpoint Humidity Pressure Winds Precip Visibility


Weather for websites

WeatherForYou.com, LLC is not responsible for any damages or problems caused by this service. Current weather conditions are obtained from the closest station including government and personal stations which may have varying degrees of accuracy. Weather forecasts are derived from the NOAA NDFD. Like all things, this site belongs to Jesus Christ... He just trusts me to maintain it. If you have any questions or comments email webmaster@weatherforyou.com

Copyright © 2014, WeatherForYou.com LLC. All rights reserved.